Weather Roundup
Issued by NWS Springfield, MO

Home | Current Version | Previous Version | Text Only | Print | Product List | Glossary On
Versions: 1 2 3 4 5 6 7 8 9 10 11 12 13 14 15 16 17 18 19 20 21 22 23 24 25 26 27 28 29 30 31 32 33 34 35 36 37 38 39 40 41 42 43 44 45 46 47 48 49 50
000
NZUS99 KSGF 310757
HRRSGF

HOURLY WEATHER
NATIONAL WEATHER SERVICE SPRINGFIELD MO
300 AM CDT SUN JUL 31 2016

......SGF CWA......

CITY           SKY/WX    TMP DP  RH WIND       PRES   REMARKS
SPRINGFIELD    CLEAR     72  69  90 SE5       29.98F
WEST PLAINS    CLEAR     70  67  90 CALM      30.03S
ROLLA          PTCLDY    68  65  90 E3        29.99F

......SURROUNDING SGF CWA......

CITY           SKY/WX    TMP DP  RH WIND       PRES   REMARKS
CHANUTE        CLEAR     73  70  90 SE7       29.94F
PARSONS        CLEAR     74  71  91 VRB3      29.94F
COFFEYVILLE    CLEAR     73  71  93 SE5       29.93F
EMPORIA        MOCLDY    72  70  93 SE5       29.93S
HARRISON AR    CLOUDY    70  69  97 S5        30.01F

......KANSAS AND MISSOURI......

CITY           SKY/WX    TMP DP  RH WIND       PRES   REMARKS
KANSAS CTY INT CLEAR     72  65  78 SE9       29.96F
SEDALIA        CLEAR     70  65  84 SE3       29.99F
ST JOSEPH      CLEAR     72  66  81 SE6       29.96S
ST LOUIS       MOCLDY    75  67  76 CALM      29.99F
KIRKSVILLE     CLEAR     63  61  94 CALM      30.01S FOG
WICHITA        PTCLDY    75  69  81 SE10      29.90S
TOPEKA         CLEAR     73  69  87 E3        29.94S
OLATHE         CLEAR     71  67  87 SE7       29.96F

......TENNESSEE......

CITY           SKY/WX    TMP DP  RH WIND       PRES   REMARKS
MEMPHIS        NOT AVBL
NASHVILLE      PTCLDY    76  72  87 W6        30.01R

......ARKANSAS.......

CITY           SKY/WX    TMP DP  RH WIND       PRES   REMARKS
FAYETTEVILLE   MOCLDY    72  69  90 E3        29.99S
FT SMITH       CLEAR     73  69  87 E6        29.97S
LITTLE ROCK    CLOUDY    74  70  87 SW5       29.99S

......OKLAHOMA.......

CITY           SKY/WX    TMP DP  RH WIND       PRES   REMARKS
TULSA          CLEAR     78  71  79 S9        29.91F
PONCA CITY     CLEAR     77  70  79 SE13      29.89F
MCALESTER      PTCLDY    78  69  73 SE6       29.97S
OKLAHOMA CITY  CLEAR     75  70  84 S8        29.93F

......IOWA............

CITY           SKY/WX    TMP DP  RH WIND       PRES   REMARKS
DES MOINES     NOT AVBL
QUAD CITIES    PTCLDY    68  64  87 E5        30.00F

......ILLINOIS........

CITY           SKY/WX    TMP DP  RH WIND       PRES   REMARKS
QUINCY         CLEAR     67  66  97 SE3       29.99F
CHICAGO        PTCLDY    67  63  87 NW6       29.99F




USA.gov is the U.S. government's official web portal to all federal, state and local government web resources and services.